Track ONEWEB-0177 now! 10-day predictions ONEWEB-0177 is classified as:
1 48074U 21025AJ 21104.58334491 .00066024 00000-0 15053-2 0 9992 2 48074 87.3922 342.8525 0011426 164.2556 52.0104 15.42599181 1769